LW9ERO Weather Reports


Display with metric or nautical units.
time (UTC)temp
F
wind
direction
speed
MPH
gust
MPH
rain 1hr
in
rain 24hr
in
rain mn
in
humidity
%
barometer
mb
20260508145039 49 293 15.0 27.0 0.00 0.00 0.00 62 1009.1
20260508144035 49 270 17.0 27.0 0.00 0.00 0.00 63 1009.3
20260508143032 49 203 13.0 27.0 0.00 0.00 0.00 64 1009.3
20260508142040 49 315 11.0 27.0 0.00 0.00 0.00 64 1009.4
20260508141014 49 225 14.0 30.0 0.00 0.00 0.00 65 1009.6
20260508140008 48 270 15.0 29.0 0.00 0.00 0.00 64 1009.7
20260508135003 48 270 11.0 27.0 0.00 0.00 0.00 66 1009.4
20260508133955 46 293 7.0 22.0 0.00 0.00 0.00 69 1009.4
20260508132949 46 338 14.0 25.0 0.00 0.00 0.00 68 1009.5
20260508131943 46 248 14.0 29.0 0.00 0.00 0.00 67 1009.4
20260508130937 46 270 11.0 30.0 0.00 0.00 0.00 68 1009.3
20260508125931 46 270 17.0 25.0 0.00 0.00 0.00 68 1009.2
20260508124925 47 270 14.0 27.0 0.00 0.00 0.00 68 1009.0
20260508123920 47 293 15.0 31.0 0.00 0.00 0.00 69 1009.0
20260508122913 47 293 21.0 31.0 0.00 0.00 0.00 69 1009.1
20260508121906 47 315 11.0 27.0 0.00 0.00 0.00 71 1008.7
20260508120901 48 270 14.0 24.0 0.00 0.00 0.00 69 1008.5
20260508115853 47 293 8.0 27.0 0.00 0.00 0.00 70 1008.7
20260508114847 47 225 11.0 23.0 0.00 0.00 0.00 70 1008.7
20260508113841 47 270 12.0 24.0 0.00 0.00 0.00 73 1008.6
20260508112835 46 270 9.0 23.0 0.00 0.00 0.00 74 1008.5
20260508111830 46 293 10.0 27.0 0.00 0.00 0.00 74 1008.4
20260508110823 46 270 17.0 27.0 0.00 0.00 0.00 74 1008.3
20260508105818 46 293 9.0 23.0 0.00 0.00 0.00 75 1008.2
20260508104811 47 225 15.0 29.0 0.00 0.00 0.00 76 1008.0
20260508102757 47 270 12.0 25.0 0.00 0.00 0.00 77 1007.7
20260508101752 47 203 8.0 24.0 0.00 0.00 0.00 78 1007.7
20260508100745 47 225 8.0 22.0 0.00 0.00 0.00 79 1007.6
20260508095740 47 248 13.0 27.0 0.00 0.00 0.00 79 1007.4
20260508094734 47 225 6.0 24.0 0.00 0.00 0.00 79 1007.4
20260508093727 47 248 10.0 27.0 0.00 0.00 0.00 79 1007.3
20260508092722 47 270 11.0 24.0 0.00 0.00 0.00 79 1007.2
20260508091714 47 248 12.0 25.0 0.00 0.00 0.00 80 1006.9
20260508090708 47 270 11.0 27.0 0.00 0.00 0.00 80 1006.9
20260508085702 47 225 8.0 22.0 0.00 0.00 0.00 81 1007.0
20260508084656 47 270 10.0 25.0 0.00 0.00 0.00 82 1006.9
20260508083649 47 225 12.0 23.0 0.00 0.00 0.00 81 1006.7
20260508082644 47 225 11.0 24.0 0.00 0.00 0.00 82 1006.9
20260508081637 47 270 8.0 25.0 0.00 0.00 0.00 82 1006.8
20260508080631 47 248 14.0 23.0 0.00 0.00 0.00 82 1006.7
20260508075625 46 248 11.0 21.0 0.00 0.00 0.00 85 1006.8
20260508074620 46 270 9.0 18.0 0.00 0.00 0.00 88 1006.8
20260508073614 46 248 10.0 20.0 0.00 0.00 0.00 89 1006.7
20260508072606 46 203 7.0 18.0 0.00 0.00 0.00 89 1006.8
20260508071600 46 248 10.0 24.0 0.00 0.00 0.00 87 1006.8
20260508070554 47 225 11.0 23.0 0.00 0.00 0.00 84 1007.2
20260508065548 48 293 8.0 24.0 0.00 0.00 0.00 77 1007.1
20260508064542 48 270 11.0 30.0 0.00 0.00 0.00 75 1007.0
20260508063535 48 270 13.0 27.0 0.00 0.00 0.00 74 1007.1
20260508062530 48 270 9.0 21.0 0.00 0.00 0.00 74 1007.1
20260508061523 49 248 11.0 23.0 0.00 0.00 0.00 73 1007.3
20260508060520 49 225 12.0 22.0 0.00 0.00 0.00 74 1007.3
20260508055518 49 248 15.0 25.0 0.00 0.01 0.00 75 1007.4
20260508054505 49 248 10.0 23.0 0.00 0.01 0.00 74 1007.6
20260508053458 49 248 10.0 21.0 0.00 0.01 0.00 73 1007.4
20260508052452 49 248 10.0 29.0 0.00 0.01 0.00 72 1007.5
20260508051446 49 225 13.0 29.0 0.00 0.01 0.00 71 1007.2
20260508050439 49 248 11.0 21.0 0.00 0.01 0.00 73 1007.3
20260508045434 49 270 11.0 27.0 0.00 0.01 0.00 74 1007.1
20260508044427 49 225 13.0 27.0 0.00 0.01 0.00 73 1007.4
20260508043422 49 180 14.0 22.0 0.00 0.01 0.00 73 1007.3
20260508042417 49 225 7.0 25.0 0.00 0.01 0.00 76 1007.6
20260508041410 49 270 8.0 20.0 0.00 0.01 0.00 77 1007.5
20260508040403 49 270 9.0 18.0 0.00 0.01 0.00 78 1007.3
20260508035357 48 225 5.0 22.0 0.00 0.01 0.00 80 1007.3
20260508034350 48 248 8.0 18.0 0.00 0.01 0.00 79 1007.0
20260508033344 48 248 10.0 18.0 0.00 0.01 0.00 80 1007.1
20260508032338 48 248 6.0 20.0 0.00 0.01 0.00 81 1007.4
20260508031332 48 248 6.0 23.0 0.00 0.01 0.00 82 1007.2
20260508030326 48 225 11.0 23.0 0.00 0.01 0.00 83 1007.4
20260508024313 48 248 8.0 21.0 0.00 0.01 0.01 85 1007.4
20260508023306 47 248 4.0 17.0 0.00 0.01 0.01 86 1007.4
20260508022300 47 248 10.0 21.0 0.00 0.01 0.01 88 1007.6
20260508021255 47 180 10.0 20.0 0.00 0.01 0.01 89 1007.3
20260508020248 47 248 11.0 24.0 0.00 0.01 0.01 90 1007.5
20260508015242 47 270 14.0 29.0 0.00 0.01 0.01 91 1007.4
20260508014236 47 225 13.0 24.0 0.00 0.01 0.01 93 1007.2
20260508013231 47 248 11.0 27.0 0.00 0.01 0.01 94 1007.8
20260508012224 48 225 11.0 22.0 0.00 0.01 0.01 94 1007.6
20260508011219 48 248 10.0 21.0 0.00 0.01 0.01 95 1007.3
20260508010211 48 225 8.0 27.0 0.00 0.01 0.01 95 1007.4
20260508005204 48 203 8.0 20.0 0.00 0.01 0.01 95 1007.5
20260508004159 49 225 11.0 25.0 0.00 0.01 0.01 95 1007.5
20260508003153 49 225 10.0 23.0 0.00 0.01 0.01 95 1007.4
20260508002147 49 270 12.0 24.0 0.00 0.01 0.01 94 1007.5
20260508001141 50 248 11.0 27.0 0.00 0.01 0.01 92 1007.4
20260508000134 50 270 11.0 23.0 0.00 0.01 0.01 90 1007.4
20260507235128 51 248 16.0 29.0 0.00 0.01 0.01 90 1007.2
20260507234122 51 270 14.0 22.0 0.00 0.01 0.01 89 1007.3
20260507233118 51 293 9.0 22.0 0.00 0.01 0.01 90 1007.0
20260507232110 51 248 11.0 23.0 0.00 0.01 0.01 89 1007.4
20260507231103 51 248 11.0 29.0 0.00 0.01 0.01 89 1007.3
20260507230110 51 203 8.0 25.0 0.00 0.01 0.01 89 1007.1
20260507225050 52 270 16.0 23.0 0.00 0.02 0.01 90 1006.5
20260507224044 52 270 11.0 20.0 0.00 0.02 0.01 90 1006.5
20260507223051 52 248 10.0 21.0 0.00 0.02 0.01 89 1006.1
20260507222047 52 135 14.0 24.0 0.00 0.02 0.01 89 1006.3
20260507221033 52 225 8.0 22.0 0.00 0.02 0.01 89 1006.1
20260507220026 52 225 10.0 27.0 0.00 0.02 0.01 88 1005.9
20260507215014 52 315 11.0 27.0 0.00 0.02 0.01 87 1006.1
20260507214010 53 225 11.0 24.0 0.00 0.02 0.01 87 1006.0
20260507213001 53 248 11.0 23.0 0.00 0.02 0.01 87 1005.7
20260507211955 53 248 12.0 22.0 0.00 0.02 0.01 88 1005.8
20260507210949 53 270 11.0 27.0 0.00 0.02 0.01 88 1006.0
20260507205943 53 270 15.0 21.0 0.00 0.02 0.01 90 1005.9
20260507204936 53 270 11.0 27.0 0.00 0.02 0.01 89 1005.5
20260507203930 53 270 15.0 27.0 0.00 0.02 0.01 89 1005.7
20260507202926 53 270 14.0 29.0 0.00 0.02 0.01 88 1005.7
20260507201920 53 270 11.0 27.0 0.00 0.02 0.01 91 1005.3
20260507200912 53 270 15.0 27.0 0.00 0.02 0.01 94 1005.1
20260507195905 53 225 12.0 24.0 0.00 0.02 0.01 94 1004.9
20260507194858 53 0 10.0 24.0 0.00 0.02 0.01 95 1004.8
20260507193854 53 248 9.0 17.0 0.00 0.02 0.01 94 1004.9
20260507192846 54 248 8.0 17.0 0.00 0.02 0.01 93 1004.5
20260507191840 54 270 8.0 18.0 0.00 0.02 0.01 91 1005.2
20260507190833 55 270 10.0 21.0 0.00 0.02 0.01 89 1005.6
20260507185828 55 270 10.0 18.0 0.00 0.02 0.01 89 1005.9
20260507184822 55 293 10.0 18.0 0.00 0.02 0.01 89 1006.3
20260507183818 55 248 9.0 20.0 0.00 0.02 0.01 88 1006.2
20260507182809 56 293 10.0 17.0 0.00 0.02 0.01 85 1006.2
20260507181803 56 270 6.0 18.0 0.00 0.02 0.01 85 1006.6
20260507180757 55 270 11.0 18.0 0.00 0.02 0.01 85 1006.3
20260507175750 56 270 10.0 20.0 0.00 0.02 0.01 84 1006.4
20260507174744 56 225 7.0 16.0 0.00 0.02 0.01 85 1006.2
20260507173738 55 225 11.0 21.0 0.00 0.02 0.01 83 1006.0
20260507172732 56 293 10.0 22.0 0.00 0.02 0.01 82 1005.9
20260507171726 56 225 10.0 22.0 0.00 0.02 0.01 81 1005.9
20260507170726 56 225 11.0 20.0 0.00 0.02 0.01 80 1006.0
20260507165714 56 248 11.0 23.0 0.00 0.02 0.01 79 1006.0
20260507164709 57 248 8.0 24.0 0.00 0.02 0.01 79 1006.0
20260507163701 57 270 11.0 25.0 0.00 0.02 0.01 78 1006.3
20260507162655 56 293 13.0 21.0 0.00 0.02 0.01 77 1006.6
20260507161649 57 270 15.0 22.0 0.00 0.02 0.01 77 1006.4
20260507160643 57 293 12.0 24.0 0.00 0.02 0.01 76 1006.3
20260507155637 58 270 14.0 24.0 0.00 0.02 0.01 76 1006.4
20260507154630 58 270 12.0 18.0 0.00 0.02 0.01 75 1006.3
20260507153625 58 248 11.0 22.0 0.00 0.02 0.01 75 1006.4
20260507152620 58 270 5.0 17.0 0.00 0.02 0.01 76 1006.4
20260507151612 58 270 10.0 20.0 0.00 0.02 0.01 75 1006.2
20260507150605 58 225 11.0 20.0 0.00 0.02 0.01 76 1005.7